RH
41 42 42 34 27 25 30 27 19 16 13 13 10 8 8 8 6 8 11 14 18 37 52 62 66 57 58 70 52 42 43 16 21 25 28 21 21 22 25 28 19 19 28 50
46 46 39 32 26 28 35 37 16 11 13 13 11 8 8 8 8 6 10 10 9 23 34 48 62 63 62 73 58 46 37 18 22 25 22 20 20 22 36 36 22 17 26 47
38 37 30 25 23 26 23 46 14 12 19 12 9 9 8 7 6 5 5 7 12 29 27 28 47 63 63 72 72 49 28 22 22 18 19 18 15 16 28 37 34 26 31 54
38 30 29 19 15 16 19 28 17 10 9 8 15 10 10 7 6 7 11 12 7 19 32 33 62 66 63 70 74 55 25 27 25 18 15 13 11 9 19 30 48 36 32 41
26 21 11 12 10 13 10 26 21 18 13 10 10 11 10 7 6 14 10 6 4 25 30 37 68 82 70 64 72 58 27 27 25 16 14 11 11 8 11 25 43 38 36 56
20 17 15 11 8 8 9 13 18 17 16 11 12 12 8 7 7 4 6 6 4 21 28 41 76 82 78 59 67 58 32 28 22 16 14 15 15 12 16 60 42 40 46 51
19 14 12 13 15 16 16 18 22 24 14 7 12 17 10 7 7 5 5 10 18 37 39 77 70 86 85 62 58 61 32 28 18 16 15 16 16 14 17 60 49 54 52 63
9 9 7 6 6 9 12 21 17 23 23 14 22 8 6 10 8 12 11 16 40 41 51 92 84 100 94 56 52 55 29 22 17 16 15 14 18 15 16 71 66 63 75 82
6 6 11 10 12 15 20 16 36 57 34 27 15 10 11 14 18 38 41 47 66 54 62 91 93 97 92 56 31 25 29 19 18 16 15 14 20 17 16 47 93 99 100 89
6 6 9 10 8 8 13 48 77 63 40 55 25 32 24 30 47 48 56 83 90 88 100 89 99 95 98 49 31 25 30 21 19 17 16 16 18 21 16 13 46 92 90 91
7 6 10 12 15 19 28 28 62 66 59 84 50 31 34 49 50 53 81 98 99 98 98 98 96 98 92 82 54 34 33 24 22 18 18 18 19 24 20 20 18 12 31 47
28 11 6 21 27 22 37 53 87 85 77 87 94 55 72 62 66 100 97 98 98 98 97 98 96 94 81 96 82 64 41 38 26 21 21 19 19 22 25 23 23 24 20 11
91 77 58 41 48 47 99 93 77 79 82 92 87 61 66 84 94 93 97 98 98 94 91 100 87 86 99 90 79 66 40 48 37 23 22 20 19 20 27 27 24 26 28 27
86 78 90 99 82 63 100 83 98 99 100 84 85 81 100 89 89 81 98 98 98 90 97 97 89 88 80 92 95 57 37 47 42 28 23 22 21 23 23 32 35 33 27 30
72 88 97 100 81 96 100 100 100 99 99 96 100 100 100 96 87 92 99 97 98 100 98 85 90 91 88 92 82 56 49 58 63 52 30 27 25 23 26 33 38 36 34 29
94 100 100 98 94 78 92 86 91 82 92 89 100 91 96 93 100 96 95 100 98 99 91 81 75 100 89 90 84 74 77 91 86 75 60 54 31 25 24 31 36 42 43 40
100 100 100 92 64 59 52 44 78 85 91 99 100 100 100 100 100 98 96 100 97 98 99 98 99 100 97 93 92 99 100 100 98 97 94 83 71 36 27 29 36 42 47 47
100 100 79 43 46 58 70 88 90 70 71 87 94 95 89 86 93 98 98 98 100 95 97 99 100 100 98 90 92 93 99 95 98 98 98 97 98 92 86 48 40 45 53 56
100 100 55 31 47 64 60 63 86 100 90 86 93 87 91 93 90 75 62 68 96 98 95 93 98 97 99 96 98 97 98 98 96 98 99 98 97 94 94 96 98 97 74 63
99 25 41 26 18 30 62 69 56 64 95 77 63 58 75 88 84 79 65 62 70 76 84 89 90 91 92 91 92 95 82 54 66 76 86 79 93 97 99 98 96 95 97 97
62 44 46 40 22 42 70 42 35 51 55 52 47 31 26 47 26 24 41 23 46 52 55 56 87 91 100 91 85 60 44 39 53 38 29 27 38 56 83 98 98 99 97 93
32 31 27 24 23 74 82 59 64 70 61 51 37 25 23 19 20 19 18 15 32 39 75 48 82 97 76 97 100 96 74 68 60 52 60 49 46 42 35 48 77 96 97 99
67 47 39 45 61 61 88 89 49 38 35 60 90 93 99 98 61 32 21 95 100 100 98 71 18 18 55 72 76 88 87 69 75 58 34 54 64 64 56 33 32 42 65 86
100 100 96 97 58 61 65 74 74 60 53 65 100 100 100 96 85 72 77 80 100 97 100 100 100 77 60 52 70 81 63 58 62 56 59 63 57 76 66 40 27 22 33 40
100 100 100 99 100 100 100 100 100 98 82 63 80 98 92 78 58 46 62 82 100 100 100 98 97 100 99 72 82 44 40 46 53 51 60 62 60 59 50 26 27 30 25 34
100 100 100 100 99 100 100 100 98 100 88 87 85 86 76 57 47 39 36 39 65 92 88 72 72 100 98 97 85 52 59 57 55 47 34 28 27 36 40 35 40 45 52 52
Wind_Speed
42 45 47 42 39 40 43 43 47 47 46 46 45 43 41 40 37 35 37 40 40 38 38 37 41 35 29 29 31 27 28 21 22 23 21 21 21 23 28 29 31 27 22 22
44 45 42 41 41 42 42 44 47 47 46 47 45 44 42 41 37 38 36 37 43 42 42 39 38 38 27 26 28 27 26 20 22 23 21 22 22 24 25 25 25 25 23 24
40 40 40 39 40 42 42 44 45 47 49 48 45 45 39 36 38 39 39 39 44 45 38 41 36 33 26 22 27 28 23 20 21 23 23 24 22 23 22 24 21 23 22 25
38 40 39 37 38 42 42 43 46 47 48 44 44 47 37 38 36 38 36 37 45 48 36 42 35 33 24 21 26 28 21 19 22 24 23 24 23 24 21 20 18 21 23 26
38 36 36 36 38 41 38 43 45 46 47 46 42 46 41 37 36 34 40 44 47 44 40 44 38 34 26 25 26 28 23 20 22 22 22 22 21 21 21 25 20 21 24 24
39 38 37 38 38 40 41 43 44 45 45 43 37 44 34 37 41 44 45 45 50 44 43 43 39 35 31 28 27 29 23 21 21 20 20 21 20 20 23 24 22 24 27 25
34 33 34 36 40 41 42 41 41 43 45 39 39 43 36 43 40 45 44 43 47 41 42 42 34 31 30 29 26 29 24 20 21 18 18 19 18 17 20 18 20 23 27 27
34 34 35 35 37 36 36 38 40 42 42 38 38 43 37 38 39 38 38 40 39 41 44 42 32 35 28 31 28 28 22 21 20 17 16 17 16 14 16 16 16 19 20 16
35 34 32 34 34 35 33 38 37 36 35 38 40 42 38 32 32 33 35 37 35 40 42 40 34 31 24 29 24 24 22 22 19 16 15 16 14 13 11 12 12 16 13 13
35 35 32 33 34 33 32 25 34 37 39 41 42 38 33 31 32 34 34 31 31 40 42 36 34 28 24 26 25 23 19 22 19 17 16 15 15 11 10 6 3 7 10 17
35 36 30 33 32 31 30 30 28 33 38 39 37 33 31 29 30 36 32 31 33 36 40 37 35 31 28 27 25 21 21 23 21 18 17 17 15 12 11 10 6 6 5 6
34 38 37 32 32 32 28 28 28 29 32 35 38 34 31 31 28 24 25 20 32 40 43 39 34 34 27 21 24 23 25 24 22 20 18 18 17 14 13 12 12 9 6 5
31 30 31 33 34 31 29 31 29 31 28 27 34 36 26 28 26 28 24 25 39 44 41 39 40 33 24 22 26 26 27 27 25 23 22 19 20 17 15 15 16 14 10 9
34 34 34 32 33 31 36 30 30 27 29 31 30 32 25 28 28 23 21 15 35 39 38 39 32 31 27 24 25 28 27 30 28 26 25 22 21 20 16 14 15 15 16 15
30 27 37 33 27 29 26 31 28 30 29 29 22 27 28 26 28 20 25 8 31 41 40 37 35 36 35 29 32 32 30 34 31 28 27 25 24 24 21 17 17 15 14 16
29 27 26 33 30 31 33 32 34 31 33 20 21 21 16 18 22 20 14 6 25 32 40 40 35 31 34 34 32 33 31 30 33 30 29 31 28 27 27 25 23 21 20 20
24 22 19 16 21 17 21 24 28 33 30 29 23 17 18 15 12 14 16 12 12 12 33 44 39 37 31 27 29 31 30 31 33 34 33 33 32 31 31 31 29 26 26 25
17 19 18 17 15 16 19 22 27 24 25 23 26 28 26 24 22 19 16 16 18 18 11 19 27 30 30 32 30 29 33 35 32 32 31 35 35 34 33 33 33 32 31 29
13 15 13 13 12 15 20 27 25 25 20 21 20 19 21 19 22 19 20 24 26 27 22 16 25 33 29 30 27 28 27 29 30 32 32 31 35 37 38 37 35 36 37 35
15 13 12 13 13 16 19 22 23 24 24 24 23 23 24 27 29 28 24 25 25 26 28 28 29 27 24 29 29 31 32 33 36 34 34 33 37 39 36 40 40 40 40 39
16 14 15 20 20 20 21 22 24 21 20 23 24 23 24 26 25 24 26 24 25 25 27 27 30 32 30 28 32 33 35 34 38 39 39 38 39 39 42 41 44 46 43 43
15 14 17 24 25 25 25 23 23 23 22 18 20 19 22 21 22 22 18 20 20 24 27 29 31 25 27 31 34 36 38 42 43 39 41 38 35 36 37 44 46 47 45 42
12 20 22 28 26 23 23 25 25 25 23 19 15 16 16 17 18 17 17 10 13 28 22 29 28 35 35 34 32 33 37 41 43 44 43 45 43 38 36 38 44 46 49 48
11 12 24 19 20 17 17 17 15 18 21 22 18 14 13 12 13 16 17 19 14 14 28 28 30 31 33 36 36 38 38 35 35 35 39 44 45 45 43 43 42 44 46 46
3 11 12 16 13 13 10 11 10 11 14 18 23 18 17 16 14 12 18 18 14 14 17 20 23 33 35 32 28 29 27 30 33 36 36 36 37 40 43 41 36 37 41 41
3 7 17 14 15 13 16 14 13 11 14 14 13 10 12 14 15 15 17 20 23 26 24 22 22 24 29 32 29 28 28 32 32 31 32 36 37 34 35 36 37 38 38 37
Wind_Direction
244 247 251 251 252 251 254 254 255 252 250 249 253 258 258 258 255 252 252 256 262 260 263 263 263 262 264 269 272 280 282 283 287 289 288 287 287 290 293 282 267 258 251 237
243 250 250 249 247 246 251 254 255 252 252 252 249 254 256 258 266 269 261 261 264 260 260 264 263 258 250 260 270 275 276 278 282 284 285 285 291 301 306 285 268 253 243 229
241 245 243 242 239 241 244 249 252 250 248 250 255 255 261 264 265 267 265 264 263 262 260 261 259 248 237 248 260 267 268 271 277 280 283 284 292 297 305 293 265 248 235 226
237 237 240 238 237 238 241 243 248 253 254 252 254 260 263 268 270 269 269 261 263 259 258 259 258 248 230 238 250 258 260 267 272 279 282 285 292 294 298 300 266 243 221 222
236 233 235 235 236 238 237 243 245 247 251 255 261 266 259 264 267 270 267 266 261 258 253 252 250 245 234 230 240 253 252 259 268 274 280 287 292 296 295 293 263 237 225 224
234 237 233 235 236 240 241 241 242 246 250 254 259 266 261 267 271 270 266 262 262 255 245 242 241 244 234 229 235 249 247 250 260 270 281 289 293 301 307 291 247 228 223 233
237 237 240 234 235 238 242 246 247 248 253 262 264 264 269 268 269 266 265 259 254 249 242 236 241 236 244 231 232 243 241 245 252 264 280 291 295 301 309 288 238 234 227 241
230 230 232 237 237 240 244 246 249 254 257 262 262 265 266 267 269 271 267 257 248 236 234 226 223 230 226 228 230 236 231 240 248 261 277 289 295 300 310 289 242 234 231 247
230 232 233 235 238 237 237 244 251 259 262 263 263 267 270 274 269 261 252 251 240 225 225 221 218 215 215 227 225 222 223 236 244 253 267 284 291 294 310 323 245 236 234 255
229 233 231 236 239 241 244 243 243 250 254 257 265 273 273 269 267 248 247 247 236 223 217 222 209 195 213 225 223 220 222 233 240 248 262 274 280 291 289 299 285 226 245 233
238 240 233 236 238 239 243 246 250 256 253 254 265 264 264 266 252 242 238 241 231 211 214 198 208 191 199 217 226 223 220 230 235 242 255 268 268 270 276 272 265 254 237 263
239 241 244 236 243 243 242 246 246 244 254 258 263 261 268 253 256 231 219 204 208 201 194 198 193 195 202 214 232 233 221 229 233 234 246 259 261 260 255 262 262 248 250 239
236 239 240 239 234 236 243 239 244 252 247 256 260 256 248 255 256 246 192 160 193 188 189 191 198 201 202 212 222 234 220 227 232 232 237 246 256 256 249 248 252 260 249 233
240 242 237 242 238 236 235 238 236 238 259 272 275 267 245 250 253 253 251 181 191 197 197 197 203 205 203 205 220 231 223 227 232 232 236 238 243 252 253 249 249 252 258 255
224 237 226 223 231 229 234 219 241 257 266 270 266 255 243 260 257 251 259 182 166 196 200 206 205 206 201 206 213 224 224 227 228 231 235 241 242 238 247 244 246 251 252 260
224 221 189 204 224 246 248 249 245 257 262 251 265 244 238 248 259 261 261 272 179 202 210 208 206 210 210 214 215 223 225 229 234 233 234 236 238 237 237 244 248 254 262 265
203 198 173 198 209 222 241 243 251 247 253 247 250 259 257 264 260 247 240 258 198 138 184 207 201 213 220 217 224 227 226 230 232 232 235 240 238 237 236 240 246 250 254 260
193 166 178 195 214 236 249 253 256 253 247 248 252 256 257 253 251 255 260 252 242 241 200 182 190 194 210 220 221 223 232 237 239 240 244 241 235 234 238 243 246 249 252 254
203 185 182 195 218 259 264 262 264 253 251 256 259 252 260 263 259 245 260 264 243 245 239 229 199 196 207 218 217 221 233 243 248 245 247 250 245 243 241 241 246 249 251 253
212 215 209 240 251 264 267 254 251 248 245 249 258 255 260 266 269 256 252 250 248 244 242 242 239 233 242 232 229 231 242 257 253 255 256 259 259 256 253 253 252 256 255 256
224 220 242 262 268 267 244 253 247 248 249 250 254 253 251 255 267 268 259 257 250 248 240 239 240 242 249 241 240 240 251 254 258 265 267 257 253 261 266 259 258 261 262 261
224 238 254 262 265 250 233 246 245 250 254 258 256 250 247 247 251 265 266 257 259 258 260 251 253 253 256 252 254 260 264 268 268 267 266 268 271 269 267 264 264 264 262 262
243 248 252 251 243 237 235 241 246 247 253 241 246 244 240 249 255 249 249 244 236 249 253 258 251 249 251 253 259 262 267 271 273 268 265 266 275 275 276 271 267 269 271 271
192 206 222 226 222 222 225 231 243 249 245 244 229 226 236 246 264 256 255 251 286 269 228 237 254 247 251 250 252 256 270 266 268 270 272 273 272 273 277 278 276 269 268 270
102 170 171 216 206 192 195 211 233 263 259 249 251 257 268 277 279 270 260 254 224 251 273 280 277 266 259 243 252 261 271 269 269 272 274 274 273 275 279 278 272 271 267 265
238 221 196 196 214 221 229 254 257 273 258 246 239 258 274 279 280 276 268 266 262 254 266 286 284 279 260 244 247 254 268 276 273 272 276 274 271 272 277 276 269 269 269 267